Home > Weather > Jackson > Past weeks

Flag for USA Weather for the Past 2 Weeks in Jackson, Wyoming, USA

Now
36 °F

Clear.


Feels Like: 36 °F
Forecast: 40 / 68 °F
Wind: No wind

Location: Jackson Hole

Current Time: May 5, 2016 at 7:26:51 AM

Latest Report: May 5, 2016 at 6:51 AM


Visibility: 10 mi

Pressure: 30.14 "Hg (23.80 "Hg at 1901m altitude)

Humidity: 75%

Dew Point: 28 °F

Location of JacksonLocation

Historic Weather in Jackson — Graph

°F

Jackson Temperature Yesterday

Maximum temperature yesterday: 72 °F (at 3:47 PM)
Minimum temperature yesterday: 28 °F (at 5:55 AM)
Average temperature yesterday: 45 °F

High & Low Weather Summary for the Past Weeks

 TemperatureHumidityPressure
High72 °F (May 4, 3:47 PM)100% (Apr 20, 6:15 AM)30.33 "Hg (Apr 20, 6:15 AM)
Low27 °F (Apr 27, 5:55 AM)15% (May 3, 3:55 PM)29.68 "Hg (Apr 25, 3:51 PM)
Average42 °F65%30.02 "Hg
* Reported Apr 20 6:15 AM — May 5 6:15 AM, Jackson, Weather by CustomWeather, © 2016

Note: Actual official high and low records may vary slightly from our data, if they occured in-between our weather recording intervals... More about our weather records

Advertising

Jackson Weather History for the Previous 24 Hours

Scroll right to see more
 ConditionsComfort  
Time TempWeatherWind HumidityBarometerVisibility
6:15 AM
Thu, May 5
36 °FClear.3 mph75%30.14 "Hg10 mi
5:55 AM34 °FClear.3 mph81%30.13 "Hg10 mi
5:35 AM36 °FClear.5 mph81%30.13 "Hg10 mi
5:15 AM36 °FClear.3 mph81%30.13 "Hg10 mi
4:55 AM36 °FClear.5 mph81%30.14 "Hg10 mi
4:35 AM37 °FClear.5 mph70%30.14 "Hg10 mi
4:15 AM37 °FClear.5 mph75%30.13 "Hg10 mi
3:55 AM37 °FClear.3 mph75%30.13 "Hg10 mi
3:35 AM39 °FClear.3 mph70%30.13 "Hg10 mi
3:15 AM39 °FClear.3 mph70%30.13 "Hg10 mi
2:55 AM39 °FClear.6 mph70%30.13 "Hg10 mi
2:35 AM39 °FClear.7 mph70%30.13 "Hg10 mi
2:15 AM41 °FClear.3 mph66%30.13 "Hg10 mi
1:55 AM43 °FClear.5 mph61%30.14 "Hg10 mi
1:35 AM45 °FPassing clouds.6 mph57%30.14 "Hg10 mi
1:15 AM45 °FPassing clouds.No wind57%30.13 "Hg10 mi
12:55 AM46 °FClear.5 mph53%30.14 "Hg10 mi
12:35 AM48 °FClear.No wind50%30.14 "Hg10 mi
12:15 AM45 °FClear.5 mph57%30.13 "Hg10 mi
11:55 PM
Wed, May 4
46 °FClear.3 mph53%30.13 "Hg10 mi
11:35 PM45 °FClear.7 mph57%30.13 "Hg10 mi
11:15 PM50 °FClear.7 mph47%30.12 "Hg10 mi
10:55 PM48 °FClear.5 mph50%30.12 "Hg10 mi
10:35 PM48 °FClear.9 mph50%30.12 "Hg10 mi
10:15 PM52 °FClear.6 mph41%30.12 "Hg10 mi
9:55 PM55 °FClear.7 mph28%30.12 "Hg10 mi
9:35 PM57 °FClear.No wind27%30.11 "Hg10 mi
9:15 PM59 °FSunny.6 mph23%30.10 "Hg10 mi
6:55 PM68 °FSunny.7 mph16%30.10 "Hg10 mi
5:55 PM68 °FSunny.No wind16%30.11 "Hg10 mi
4:55 PM70 °FSunny.7 mph16%30.12 "Hg10 mi
3:47 PM72 °FSunny.7 mph15%30.14 "Hg10 mi
2:51 PM70 °FSunny.14 mph18%30.17 "Hg10 mi
1:51 PM68 °FSunny.6 mph20%30.19 "Hg10 mi
12:51 PM64 °FSunny.5 mph24%30.22 "Hg10 mi
11:51 AM61 °FSunny.6 mph29%30.24 "Hg10 mi
10:55 AM55 °FSunny.No wind36%30.26 "Hg10 mi
9:52 AM50 °FSunny.No wind43%30.28 "Hg10 mi
8:49 AM45 °FSunny.No wind53%30.30 "Hg10 mi
7:53 AM37 °FSunny.No wind70%30.31 "Hg10 mi
Weather by CustomWeather, © 2016

See weather overviewHow to use our weather pages